SL-14 DEB, 45294

Orbit data source: Space-Track

SL-14 DEB, 45294 is space debris in LEO originally from a launch on Thu, 15 Aug 1991 UTC launched from the Plesetsk Missile And Space Complex (PKMTR). Debris objects in space refer to the collection of defunct objects orbiting the Earth. Examples of debris include non-operational satellites, rocket bodies, and fragments generated from explosions, collisions, or faulty payload assembly.

Loading next visibility...
Identifier
45294, 1991-056AG
Orbit
LEO
Country
Flag of CISCIS
Related business
Manufacturer
Unknown
Mission
Spacecraft
Bus & Motor
Unknown
Mass
Unknown
Launch date (UTC)
1991-08-15 (34 years ago)
Launch vehicle
Unknown
Launch site
Plesetsk Missile And Space Complex (PKMTR)
Object type
Payload
Rocket body
Debris
Shape & HBR
Unknown
Radar Cross Section
Small (<0.1 m²)

Expand to show TLE details & history
Last TLE update: 2 days ago

TLE from 2 days ago
0 SL-14 DEB
1 45294U 91056AG  25258.89781664  .00000821  00000-0  19807-2 0  9994
2 45294  82.5695 331.0878 0013141 105.1472 255.1107 13.21029529267540
Epoch: 2025-09-15T21:32Z
TLE epoch observation values (Epoch: 2025-09-15T21:32:51.357Z)
Latitude
-0.00005°
Longitude
12.77793°
Altitude
1,186.169 km
Speed
7.259 km/s
True Right ascension
22h 04m 21s
True Declination
0° 00' 00"
Sunlit
Object was in full shadow at epoch
Visualization orbit readout
Latitude
Unknown
Longitude
Unknown
Altitude
Unknown
Speed
Unknown
Apparent Right ascension
Unknown
Apparent Declination
Unknown
Sunlit
N/A
Visualization observer readout
Local Sidereal Time
21:09:39
Azimuth
Unknown
Elevation
Unknown
Doppler factor
Unknown
Orbital elements
Apogee altitude
1,187.958 km
Perigee altitude
1,168.099 km
Semi-major axis
7,556.165 km
Eccentricity
0.00131
Inclination
82.5695°
RAAN
331.0878°
Arg. of periapsis
105.1472°
True anomaly
254.96523°
Mean anomaly
255.1107°
Eccentric anomaly
255.03796°
Mean motion
3.30439 °/min
Orbital period
108.95 mins
BSTAR
0.0019807
Loading maneuver chart data...
Computing Atmospheric mass density...
Loading historical data...
Loading historical data...
Loading historical data...
Loading historical data...
Loading historical data...
Loading historical data...
Loading historical data...

Documentation

Showing up to 5 results
|